Time,TemperatureF,DewpointF,PressureIn,WindDirection,WindDirectionDegrees,WindSpeedMPH,WindSpeedGustMPH,Humidity,HourlyPrecipIn,Conditions,Clouds,dailyrainin,SoftwareType,DateUTC
2013-08-28 00:03:00,79.7,73.0,29.86,SW,229,2.0,-999.0,80,-99.99,,,0.00,weatherlink.com 1.10,2013-08-28 04:03:00,
2013-08-28 00:18:00,79.5,73.0,29.85,SSW,213,4.0,-999.0,80,-99.99,,,0.00,weatherlink.com 1.10,2013-08-28 04:18:00,
2013-08-28 00:33:00,79.1,73.0,29.84,SW,233,8.0,-999.0,81,-99.99,,,0.00,weatherlink.com 1.10,2013-08-28 04:33:00,
2013-08-28 00:49:00,78.8,73.0,29.84,SW,230,5.0,-999.0,81,-99.99,,,0.00,weatherlink.com 1.10,2013-08-28 04:49:00,
2013-08-28 01:04:00,78.8,73.0,29.84,WSW,255,4.0,-999.0,81,-99.99,,,0.00,weatherlink.com 1.10,2013-08-28 05:04:00,
2013-08-28 01:19:00,78.8,73.0,29.84,WSW,245,5.0,-999.0,81,-99.99,,,0.00,weatherlink.com 1.10,2013-08-28 05:19:00,
2013-08-28 01:34:00,78.5,72.0,29.84,SW,234,6.0,-999.0,81,-99.99,,,0.00,weatherlink.com 1.10,2013-08-28 05:34:00,
2013-08-28 01:49:00,78.3,72.0,29.83,SW,236,5.0,-999.0,82,-99.99,,,0.00,weatherlink.com 1.10,2013-08-28 05:49:00,
2013-08-28 02:04:00,78.1,72.0,29.84,WSW,238,4.0,-999.0,82,-99.99,,,0.00,weatherlink.com 1.10,2013-08-28 06:04:00,
2013-08-28 02:19:00,78.0,72.0,29.85,WSW,240,3.0,-999.0,82,-99.99,,,0.00,weatherlink.com 1.10,2013-08-28 06:19:00,
2013-08-28 02:34:00,78.1,72.0,29.84,SW,234,6.0,-999.0,82,-99.99,,,0.00,weatherlink.com 1.10,2013-08-28 06:34:00,
2013-08-28 02:49:00,78.0,72.0,29.83,SW,223,4.0,-999.0,82,-99.99,,,0.00,weatherlink.com 1.10,2013-08-28 06:49:00,
2013-08-28 03:04:00,77.9,72.0,29.84,SW,228,6.0,-999.0,82,-99.99,,,0.00,weatherlink.com 1.10,2013-08-28 07:04:00,
2013-08-28 03:19:00,77.8,72.0,29.82,SW,231,10.0,-999.0,82,-99.99,,,0.00,weatherlink.com 1.10,2013-08-28 07:19:00,
2013-08-28 03:34:00,77.9,71.0,29.81,WSW,240,10.0,-999.0,80,-99.99,,,0.00,weatherlink.com 1.10,2013-08-28 07:34:00,
2013-08-28 03:49:00,78.3,71.0,29.82,SW,230,6.0,-999.0,79,-99.99,,,0.00,weatherlink.com 1.10,2013-08-28 07:49:00,
2013-08-28 04:05:00,78.5,71.0,29.81,WSW,244,7.0,-999.0,78,-99.99,,,0.00,weatherlink.com 1.10,2013-08-28 08:05:00,
2013-08-28 04:20:00,78.6,71.0,29.82,WSW,250,6.0,-999.0,77,-99.99,,,0.00,weatherlink.com 1.10,2013-08-28 08:20:00,
2013-08-28 04:35:00,78.8,71.0,29.82,WSW,240,7.0,-999.0,76,-99.99,,,0.00,weatherlink.com 1.10,2013-08-28 08:35:00,
2013-08-28 04:50:00,79.0,70.0,29.82,SW,236,5.0,-999.0,75,-99.99,,,0.00,weatherlink.com 1.10,2013-08-28 08:50:00,
2013-08-28 05:05:00,78.9,70.0,29.82,WSW,240,10.0,-999.0,75,-99.99,,,0.00,weatherlink.com 1.10,2013-08-28 09:05:00,
2013-08-28 05:20:00,78.5,71.0,29.84,NNW,327,6.0,-999.0,77,-99.99,,,0.00,weatherlink.com 1.10,2013-08-28 09:20:00,
2013-08-28 05:35:00,78.2,70.0,29.84,NW,308,6.0,-999.0,77,-99.99,,,0.00,weatherlink.com 1.10,2013-08-28 09:35:00,
2013-08-28 05:50:00,77.9,71.0,29.83,West,281,6.0,-999.0,78,-99.99,,,0.00,weatherlink.com 1.10,2013-08-28 09:50:00,
2013-08-28 06:05:00,77.3,70.0,29.82,West,259,4.0,-999.0,79,-99.99,,,0.00,weatherlink.com 1.10,2013-08-28 10:05:00,
2013-08-28 06:20:00,76.5,71.0,29.81,WSW,254,4.0,-999.0,82,-99.99,,,0.00,weatherlink.com 1.10,2013-08-28 10:20:00,
2013-08-28 06:35:00,75.5,70.0,29.80,WSW,242,4.0,-999.0,84,-99.99,,,0.00,weatherlink.com 1.10,2013-08-28 10:35:00,
2013-08-28 06:50:00,74.9,70.0,29.80,WSW,244,6.0,-999.0,85,-99.99,,,0.00,weatherlink.com 1.10,2013-08-28 10:50:00,
2013-08-28 07:05:00,74.6,70.0,29.80,WSW,241,6.0,-999.0,85,-99.99,,,0.00,weatherlink.com 1.10,2013-08-28 11:05:00,
2013-08-28 07:21:00,74.4,70.0,29.80,WSW,239,7.0,-999.0,86,-99.99,,,0.00,weatherlink.com 1.10,2013-08-28 11:21:00,
2013-08-28 07:36:00,74.6,70.0,29.80,WSW,243,5.0,-999.0,85,-99.99,,,0.00,weatherlink.com 1.10,2013-08-28 11:36:00,
2013-08-28 07:51:00,74.8,70.0,29.80,WSW,250,5.0,-999.0,85,-99.99,,,0.00,weatherlink.com 1.10,2013-08-28 11:51:00,
2013-08-28 08:06:00,75.2,70.0,29.80,West,264,4.0,-999.0,84,-99.99,,,0.00,weatherlink.com 1.10,2013-08-28 12:06:00,
2013-08-28 08:21:00,75.7,71.0,29.80,WSW,256,5.0,-999.0,84,-99.99,,,0.00,weatherlink.com 1.10,2013-08-28 12:21:00,
2013-08-28 08:36:00,76.3,70.0,29.80,WSW,258,4.0,-999.0,82,-99.99,,,0.00,weatherlink.com 1.10,2013-08-28 12:36:00,
2013-08-28 08:51:00,77.1,71.0,29.80,West,265,10.0,-999.0,81,-99.99,,,0.00,weatherlink.com 1.10,2013-08-28 12:51:00,
2013-08-28 09:06:00,77.7,71.0,29.81,West,269,12.0,-999.0,79,-99.99,,,0.00,weatherlink.com 1.10,2013-08-28 13:06:00,
2013-08-28 09:21:00,78.2,70.0,29.81,West,265,11.0,-999.0,77,-99.99,,,0.00,weatherlink.com 1.10,2013-08-28 13:21:00,
2013-08-28 09:36:00,78.8,71.0,29.81,West,280,13.0,-999.0,76,-99.99,,,0.00,weatherlink.com 1.10,2013-08-28 13:36:00,
2013-08-28 09:52:00,79.4,71.0,29.82,West,277,8.0,-999.0,75,-99.99,,,0.00,weatherlink.com 1.10,2013-08-28 13:52:00,
2013-08-28 10:07:00,79.6,71.0,29.83,WNW,283,9.0,-999.0,74,-99.99,,,0.00,weatherlink.com 1.10,2013-08-28 14:07:00,
2013-08-28 10:22:00,80.1,71.0,29.83,NW,308,13.0,-999.0,74,-99.99,,,0.00,weatherlink.com 1.10,2013-08-28 14:22:00,
2013-08-28 10:37:00,79.9,71.0,29.83,West,281,6.0,-999.0,74,-99.99,,,0.00,weatherlink.com 1.10,2013-08-28 14:37:00,
2013-08-28 10:52:00,80.0,71.0,29.84,NW,306,4.0,-999.0,73,-99.99,,,0.00,weatherlink.com 1.10,2013-08-28 14:52:00,
2013-08-28 11:07:00,80.0,71.0,29.84,WNW,283,6.0,-999.0,74,-99.99,,,0.00,weatherlink.com 1.10,2013-08-28 15:07:00,
2013-08-28 11:22:00,80.2,71.0,29.84,West,281,6.0,-999.0,74,-99.99,,,0.00,weatherlink.com 1.10,2013-08-28 15:22:00,
2013-08-28 11:37:00,80.7,72.0,29.84,West,268,4.0,-999.0,74,-99.99,,,0.00,weatherlink.com 1.10,2013-08-28 15:37:00,
2013-08-28 11:52:00,81.0,72.0,29.84,West,269,6.0,-999.0,74,-99.99,,,0.00,weatherlink.com 1.10,2013-08-28 15:52:00,
2013-08-28 12:07:00,81.6,73.0,29.84,West,263,7.0,-999.0,74,-99.99,,,0.00,weatherlink.com 1.10,2013-08-28 16:07:00,
2013-08-28 12:22:00,82.3,73.0,29.84,West,266,4.0,-999.0,73,-99.99,,,0.00,weatherlink.com 1.10,2013-08-28 16:22:00,
2013-08-28 12:38:00,82.8,73.0,29.84,WNW,292,11.0,-999.0,73,-99.99,,,0.00,weatherlink.com 1.10,2013-08-28 16:38:00,
2013-08-28 12:53:00,82.4,73.0,29.83,WNW,292,5.0,-999.0,74,-99.99,,,0.00,weatherlink.com 1.10,2013-08-28 16:53:00,
2013-08-28 13:08:00,82.7,74.0,29.83,NW,321,10.0,-999.0,74,-99.99,,,0.00,weatherlink.com 1.10,2013-08-28 17:08:00,
2013-08-28 13:23:00,82.5,74.0,29.84,WNW,302,6.0,-999.0,75,-99.99,,,0.00,weatherlink.com 1.10,2013-08-28 17:23:00,
2013-08-28 13:38:00,82.3,74.0,29.84,WNW,302,6.0,-999.0,76,-99.99,,,0.00,weatherlink.com 1.10,2013-08-28 17:38:00,
2013-08-28 13:53:00,82.6,74.0,29.84,West,281,7.0,-999.0,76,-99.99,,,0.00,weatherlink.com 1.10,2013-08-28 17:53:00,
2013-08-28 14:23:00,83.0,75.0,29.84,NW,319,11.0,-999.0,76,-99.99,,,0.00,weatherlink.com 1.10,2013-08-28 18:23:00,
2013-08-28 14:38:00,82.9,75.0,29.84,WNW,292,7.0,-999.0,76,-99.99,,,0.00,weatherlink.com 1.10,2013-08-28 18:38:00,
2013-08-28 14:53:00,83.7,75.0,29.84,West,273,9.0,-999.0,75,-99.99,,,0.00,weatherlink.com 1.10,2013-08-28 18:53:00,
2013-08-28 15:08:00,84.2,75.0,29.84,West,267,10.0,-999.0,74,-99.99,,,0.00,weatherlink.com 1.10,2013-08-28 19:08:00,
2013-08-28 15:24:00,84.7,76.0,29.84,NNW,337,7.0,-999.0,75,-99.99,,,0.00,weatherlink.com 1.10,2013-08-28 19:24:00,
2013-08-28 15:39:00,84.8,75.0,29.84,NNE,23,7.0,-999.0,73,-99.99,,,0.00,weatherlink.com 1.10,2013-08-28 19:39:00,
2013-08-28 15:54:00,85.5,75.0,29.84,North,5,8.0,-999.0,70,-99.99,,,0.00,weatherlink.com 1.10,2013-08-28 19:54:00,
2013-08-28 16:09:00,84.7,74.0,29.84,NW,321,9.0,-999.0,71,-99.99,,,0.00,weatherlink.com 1.10,2013-08-28 20:09:00,
2013-08-28 16:24:00,85.6,74.0,29.84,North,9,12.0,-999.0,68,-99.99,,,0.00,weatherlink.com 1.10,2013-08-28 20:24:00,
2013-08-28 16:39:00,86.3,75.0,29.84,North,360,10.0,-999.0,69,-99.99,,,0.00,weatherlink.com 1.10,2013-08-28 20:39:00,
2013-08-28 16:54:00,85.3,75.0,29.85,NNE,18,7.0,-999.0,70,-99.99,,,0.00,weatherlink.com 1.10,2013-08-28 20:54:00,
2013-08-28 17:09:00,86.3,75.0,29.85,North,355,7.0,-999.0,68,-99.99,,,0.00,weatherlink.com 1.10,2013-08-28 21:09:00,
2013-08-28 17:24:00,85.6,74.0,29.85,NNE,21,7.0,-999.0,69,-99.99,,,0.00,weatherlink.com 1.10,2013-08-28 21:24:00,
2013-08-28 17:39:00,86.2,74.0,29.85,NNE,19,9.0,-999.0,68,-99.99,,,0.00,weatherlink.com 1.10,2013-08-28 21:39:00,
2013-08-28 17:54:00,85.0,74.0,29.86,NNE,22,8.0,-999.0,70,-99.99,,,0.00,weatherlink.com 1.10,2013-08-28 21:54:00,
2013-08-28 18:10:00,85.0,73.0,29.86,NNE,17,8.0,-999.0,68,-99.99,,,0.00,weatherlink.com 1.10,2013-08-28 22:10:00,
2013-08-28 18:25:00,84.6,74.0,29.86,NNE,19,6.0,-999.0,71,-99.99,,,0.00,weatherlink.com 1.10,2013-08-28 22:25:00,
2013-08-28 18:40:00,84.0,74.0,29.86,North,5,13.0,-999.0,72,-99.99,,,0.00,weatherlink.com 1.10,2013-08-28 22:40:00,
2013-08-28 18:55:00,83.4,74.0,29.86,NE,39,11.0,-999.0,72,-99.99,,,0.00,weatherlink.com 1.10,2013-08-28 22:55:00,
2013-08-28 19:10:00,83.0,74.0,29.86,NNE,24,5.0,-999.0,73,-99.99,,,0.00,weatherlink.com 1.10,2013-08-28 23:10:00,
2013-08-28 19:25:00,82.5,74.0,29.86,NNE,26,5.0,-999.0,75,-99.99,,,0.00,weatherlink.com 1.10,2013-08-28 23:25:00,
2013-08-28 19:40:00,81.5,73.0,29.87,NNE,33,5.0,-999.0,75,-99.99,,,0.00,weatherlink.com 1.10,2013-08-28 23:40:00,
2013-08-28 19:55:00,81.1,73.0,29.88,NNE,29,4.0,-999.0,76,-99.99,,,0.00,weatherlink.com 1.10,2013-08-28 23:55:00,
2013-08-28 20:10:00,80.5,73.0,29.88,NNE,29,3.0,-999.0,78,-99.99,,,0.00,weatherlink.com 1.10,2013-08-29 00:10:00,
2013-08-28 20:25:00,79.9,74.0,29.89,NE,54,7.0,-999.0,81,-99.99,,,0.00,weatherlink.com 1.10,2013-08-29 00:25:00,
2013-08-28 20:40:00,79.6,73.0,29.89,NE,37,7.0,-999.0,80,-99.99,,,0.00,weatherlink.com 1.10,2013-08-29 00:40:00,
2013-08-28 20:55:00,78.9,72.0,29.90,ENE,60,5.0,-999.0,80,-99.99,,,0.00,weatherlink.com 1.10,2013-08-29 00:55:00,
2013-08-28 21:11:00,78.2,72.0,29.91,ENE,60,4.0,-999.0,81,-99.99,,,0.00,weatherlink.com 1.10,2013-08-29 01:11:00,
2013-08-28 21:26:00,77.6,72.0,29.91,ENE,59,2.0,-999.0,82,-99.99,,,0.00,weatherlink.com 1.10,2013-08-29 01:26:00,
2013-08-28 21:41:00,77.2,72.0,29.92,NE,55,2.0,-999.0,83,-99.99,,,0.00,weatherlink.com 1.10,2013-08-29 01:41:00,
2013-08-28 21:56:00,76.6,72.0,29.92,NE,55,3.0,-999.0,85,-99.99,,,0.00,weatherlink.com 1.10,2013-08-29 01:56:00,
2013-08-28 22:11:00,76.3,72.0,29.93,NE,55,1.0,-999.0,86,-99.99,,,0.00,weatherlink.com 1.10,2013-08-29 02:11:00,
2013-08-28 22:26:00,76.1,71.0,29.93,NE,55,0.0,-999.0,85,-99.99,,,0.00,weatherlink.com 1.10,2013-08-29 02:26:00,
2013-08-28 22:41:00,75.7,71.0,29.93,NE,55,2.0,-999.0,86,-99.99,,,0.00,weatherlink.com 1.10,2013-08-29 02:41:00,
2013-08-28 22:56:00,75.5,71.0,29.94,NE,55,0.0,-999.0,86,-99.99,,,0.00,weatherlink.com 1.10,2013-08-29 02:56:00,
2013-08-28 23:11:00,75.1,71.0,29.94,NE,55,0.0,-999.0,87,-99.99,,,0.00,weatherlink.com 1.10,2013-08-29 03:11:00,
2013-08-28 23:26:00,74.8,71.0,29.94,NE,55,0.0,-999.0,87,-99.99,,,0.00,weatherlink.com 1.10,2013-08-29 03:26:00,
2013-08-28 23:42:00,74.4,71.0,29.95,NE,55,0.0,-999.0,88,-99.99,,,0.00,weatherlink.com 1.10,2013-08-29 03:42:00,
2013-08-28 23:57:00,73.5,70.0,29.95,NE,55,0.0,-999.0,89,-99.99,,,0.00,weatherlink.com 1.10,2013-08-29 03:57:00,